Data No,UTC Date,UTC Time,Latitude,Longitude,Course(deg),Sal(psu),Fluor Int,Blank
112,2005/4/3,23:49:00, 11-01.606N,100-00.152E,117.5,32.4815,---,164
113,2005/4/3,23:50:00, 11-01.513N,100-00.335E,117.8,32.4794,164,164
114,2005/4/3,23:51:00, 11-01.420N,100-00.520E,116.4,32.4782,165,164
115,2005/4/3,23:52:00, 11-01.325N,100-00.705E,116.4,32.478,240,164
116,2005/4/3,23:53:00, 11-01.230N,100-00.889E,117.6,32.476,---,164
117,2005/4/3,23:54:00, 11-01.135N,100-01.074E,118.3,32.4739,---,164
118,2005/4/3,23:55:00, 11-01.042N,100-01.259E,118.3,32.4717,170,164
119,2005/4/3,23:56:00, 11-00.949N,100-01.445E,117.2,32.4718,172,164
120,2005/4/3,23:57:00, 11-00.853N,100-01.630E,118.3,32.4693,168,164
121,2005/4/3,23:58:00, 11-00.760N,100-01.816E,118.3,32.4683,186,164
122,2005/4/3,23:59:00, 11-00.667N,100-02.000E,117.8,32.4682,203,164
123,2005/4/4,0:00:00, 11-00.572N,100-02.187E,117.1,32.4669,171,164
124,2005/4/4,0:01:00, 11-00.477N,100-02.372E,116.7,32.4686,168,164
125,2005/4/4,0:02:00, 11-00.381N,100-02.557E,116.2,32.4668,---,164
126,2005/4/4,0:03:00, 11-00.287N,100-02.741E,116.4,32.4658,---,164
127,2005/4/4,0:04:00, 11-00.193N,100-02.926E,117,32.4645,---,164
128,2005/4/4,0:05:00, 11-00.101N,100-03.112E,117.9,32.4624,173,164
129,2005/4/4,0:06:00, 11-00.009N,100-03.296E,116.9,32.4615,172,164
130,2005/4/4,0:07:00, 10-59.915N,100-03.481E,116.6,32.4609,165,164
131,2005/4/4,0:08:00, 10-59.818N,100-03.665E,116.6,32.4602,169,164
132,2005/4/4,0:09:00, 10-59.724N,100-03.849E,117.2,32.4598,168,164
133,2005/4/4,0:10:00, 10-59.629N,100-04.034E,117.2,32.4605,169,164
134,2005/4/4,0:11:00, 10-59.535N,100-04.219E,118.3,32.4593,171,164
135,2005/4/4,0:12:00, 10-59.440N,100-04.403E,117.7,32.4571,170,164
136,2005/4/4,0:13:00, 10-59.343N,100-04.589E,118.6,32.4554,168,164
137,2005/4/4,0:14:00, 10-59.249N,100-04.774E,117.7,32.4551,170,164
138,2005/4/4,0:15:00, 10-59.152N,100-04.958E,116.5,32.4536,169,164
139,2005/4/4,0:16:00, 10-59.059N,100-05.144E,117.6,32.4523,170,164
140,2005/4/4,0:17:00, 10-58.963N,100-05.328E,115.7,32.4502,169,164
141,2005/4/4,0:18:00, 10-58.868N,100-05.513E,116.5,32.4478,170,164
142,2005/4/4,0:19:00, 10-58.773N,100-05.699E,117.8,32.4456,169,164
143,2005/4/4,0:20:00, 10-58.678N,100-05.885E,117.8,32.4458,170,164
144,2005/4/4,0:21:00, 10-58.583N,100-06.068E,117.9,32.4462,170,164
145,2005/4/4,0:22:00, 10-58.489N,100-06.250E,117.2,32.4472,170,164
146,2005/4/4,0:23:00, 10-58.393N,100-06.435E,115.7,32.4472,169,164
147,2005/4/4,0:24:00, 10-58.295N,100-06.620E,117.9,32.4456,169,164
148,2005/4/4,0:25:00, 10-58.202N,100-06.803E,117.9,32.4441,172,164
149,2005/4/4,0:26:00, 10-58.109N,100-06.989E,118,32.4428,170,164
150,2005/4/4,0:27:00, 10-58.015N,100-07.175E,117.5,32.4418,169,164
151,2005/4/4,0:28:00, 10-57.915N,100-07.362E,117.7,32.4403,169,164
152,2005/4/4,0:29:00, 10-57.825N,100-07.542E,116.6,32.4392,170,164
153,2005/4/4,0:30:00, 10-57.728N,100-07.725E,117.8,32.4365,168,164
154,2005/4/4,0:31:00, 10-57.633N,100-07.912E,118.3,32.4313,170,164
155,2005/4/4,0:32:00, 10-57.537N,100-08.097E,117.8,32.4275,172,164
156,2005/4/4,0:33:00, 10-57.440N,100-08.282E,116.5,32.4276,171,164
157,2005/4/4,0:34:00, 10-57.344N,100-08.467E,117.3,32.4298,169,164
158,2005/4/4,0:35:00, 10-57.252N,100-08.649E,118.6,32.4302,171,164
159,2005/4/4,0:36:00, 10-57.155N,100-08.834E,118.4,32.4334,172,164
160,2005/4/4,0:37:00, 10-57.063N,100-09.016E,117.2,32.4319,169,164
161,2005/4/4,0:38:00, 10-56.968N,100-09.200E,117.9,32.4289,168,164
169,2005/4/4,0:46:00, 10-56.202N,100-10.682E,117.6,32.423,169,164
170,2005/4/4,0:47:00, 10-56.103N,100-10.865E,116.7,32.4236,171,164
171,2005/4/4,0:48:00, 10-56.008N,100-11.049E,116.8,32.4237,170,164
172,2005/4/4,0:49:00, 10-55.911N,100-11.236E,118,32.4242,170,164
173,2005/4/4,0:50:00, 10-55.814N,100-11.420E,118.5,32.4272,171,164
174,2005/4/4,0:51:00, 10-55.717N,100-11.605E,116.7,32.4303,171,164
175,2005/4/4,0:52:00, 10-55.623N,100-11.787E,119.3,32.4319,170,164
176,2005/4/4,0:53:00, 10-55.527N,100-11.972E,118.8,32.4317,170,164
177,2005/4/4,0:54:00, 10-55.428N,100-12.156E,118.7,32.4312,171,164
178,2005/4/4,0:55:00, 10-55.337N,100-12.337E,117.3,32.4298,170,164
179,2005/4/4,0:56:00, 10-55.245N,100-12.516E,116.5,32.4295,171,164
180,2005/4/4,0:57:00, 10-55.155N,100-12.691E,116,32.4287,169,164
181,2005/4/4,0:58:00, 10-55.063N,100-12.867E,116.3,32.4283,172,164
182,2005/4/4,0:59:00, 10-54.977N,100-13.038E,117.1,32.4289,171,164
183,2005/4/4,1:00:00, 10-54.889N,100-13.210E,118.1,32.4284,172,164
184,2005/4/4,1:01:00, 10-54.802N,100-13.378E,118.2,32.4274,171,164
185,2005/4/4,1:02:00, 10-54.715N,100-13.549E,116.4,32.4257,172,164
186,2005/4/4,1:03:00, 10-54.626N,100-13.721E,116.2,32.4255,171,164
187,2005/4/4,1:04:00, 10-54.536N,100-13.893E,116.7,32.4239,170,164
188,2005/4/4,1:05:00, 10-54.448N,100-14.067E,117.9,32.4219,171,164
189,2005/4/4,1:06:00, 10-54.357N,100-14.244E,116.2,32.4197,172,164
190,2005/4/4,1:07:00, 10-54.265N,100-14.421E,116.8,32.4198,170,164
191,2005/4/4,1:08:00, 10-54.172N,100-14.600E,117.1,32.4157,173,164
192,2005/4/4,1:09:00, 10-54.078N,100-14.781E,118,32.411,169,164
193,2005/4/4,1:10:00, 10-53.985N,100-14.962E,118.3,32.4079,169,164
194,2005/4/4,1:11:00, 10-53.888N,100-15.144E,118.1,32.4062,169,164
195,2005/4/4,1:12:00, 10-53.792N,100-15.327E,117.4,32.4013,171,164
196,2005/4/4,1:13:00, 10-53.698N,100-15.511E,118.7,32.3984,171,164
197,2005/4/4,1:14:00, 10-53.603N,100-15.696E,118.6,32.3982,171,164
198,2005/4/4,1:15:00, 10-53.507N,100-15.880E,118.5,32.4005,171,164
199,2005/4/4,1:16:00, 10-53.412N,100-16.066E,117.5,32.4017,170,164
200,2005/4/4,1:17:00, 10-53.316N,100-16.251E,116.1,32.4037,171,164
201,2005/4/4,1:18:00, 10-53.220N,100-16.437E,116.7,32.4048,170,164
202,2005/4/4,1:19:00, 10-53.123N,100-16.622E,116.8,32.4033,170,164
203,2005/4/4,1:20:00, 10-53.026N,100-16.808E,118.5,32.4032,168,164
204,2005/4/4,1:21:00, 10-52.933N,100-16.992E,118.4,32.4045,169,164
205,2005/4/4,1:22:00, 10-52.839N,100-17.176E,117.3,32.4052,171,164
206,2005/4/4,1:23:00, 10-52.744N,100-17.357E,117.2,32.4073,171,164
207,2005/4/4,1:24:00, 10-52.652N,100-17.539E,117.8,32.4088,173,164
208,2005/4/4,1:25:00, 10-52.559N,100-17.719E,117.4,32.4079,172,164
209,2005/4/4,1:26:00, 10-52.468N,100-17.898E,116.8,32.4092,175,164
210,2005/4/4,1:27:00, 10-52.375N,100-18.076E,116.6,32.4133,171,164
211,2005/4/4,1:28:00, 10-52.283N,100-18.255E,116,32.409,171,164
212,2005/4/4,1:29:00, 10-52.191N,100-18.432E,117.3,32.4081,171,164
213,2005/4/4,1:30:00, 10-52.099N,100-18.609E,117.6,32.4087,176,164
214,2005/4/4,1:31:00, 10-52.007N,100-18.788E,117.4,32.4101,170,164
215,2005/4/4,1:32:00, 10-51.915N,100-18.966E,118.9,32.4082,172,164
216,2005/4/4,1:33:00, 10-51.826N,100-19.143E,118.5,32.4034,170,164
217,2005/4/4,1:34:00, 10-51.733N,100-19.321E,116.7,32.4002,167,164
218,2005/4/4,1:35:00, 10-51.640N,100-19.497E,116.8,32.4012,179,164
219,2005/4/4,1:36:00, 10-51.551N,100-19.675E,117.6,32.4042,175,164
220,2005/4/4,1:37:00, 10-51.459N,100-19.852E,117.3,32.408,170,164
221,2005/4/4,1:38:00, 10-51.365N,100-20.030E,117.3,32.4107,171,164
222,2005/4/4,1:39:00, 10-51.274N,100-20.206E,117.1,32.4124,169,164
223,2005/4/4,1:40:00, 10-51.186N,100-20.382E,118.7,32.4123,171,164
224,2005/4/4,1:41:00, 10-51.093N,100-20.561E,118.8,32.4107,---,164
225,2005/4/4,1:42:00, 10-51.001N,100-20.737E,117.8,32.4095,170,164
226,2005/4/4,1:43:00, 10-50.911N,100-20.912E,117.8,32.4056,170,164
227,2005/4/4,1:44:00, 10-50.819N,100-21.087E,118.4,32.3977,170,164
228,2005/4/4,1:45:00, 10-50.729N,100-21.263E,117.9,32.3897,170,164
229,2005/4/4,1:46:00, 10-50.640N,100-21.437E,117.8,32.3832,171,164
230,2005/4/4,1:47:00, 10-50.549N,100-21.611E,117.6,32.3781,169,164
231,2005/4/4,1:48:00, 10-50.456N,100-21.788E,118.1,32.3731,165,164
232,2005/4/4,1:49:00, 10-50.360N,100-21.965E,116.3,32.3649,168,164
233,2005/4/4,1:50:00, 10-50.269N,100-22.141E,116.2,32.3565,168,164
234,2005/4/4,1:51:00, 10-50.177N,100-22.317E,117,32.3483,167,164
235,2005/4/4,1:52:00, 10-50.088N,100-22.491E,118.7,32.3417,169,164
236,2005/4/4,1:53:00, 10-49.997N,100-22.667E,117.7,32.3408,170,164
237,2005/4/4,1:54:00, 10-49.906N,100-22.840E,118.5,32.3414,170,164
238,2005/4/4,1:55:00, 10-49.818N,100-23.015E,118,32.3425,169,164
239,2005/4/4,1:56:00, 10-49.727N,100-23.192E,117.9,32.3403,171,164
240,2005/4/4,1:57:00, 10-49.634N,100-23.368E,116.9,32.338,165,164
241,2005/4/4,1:58:00, 10-49.541N,100-23.545E,117.5,32.3353,172,164
242,2005/4/4,1:59:00, 10-49.449N,100-23.722E,118.9,32.3354,170,164
243,2005/4/4,2:00:00, 10-49.358N,100-23.897E,118.4,32.3385,170,164
244,2005/4/4,2:01:00, 10-49.264N,100-24.071E,116.9,32.3431,170,164
245,2005/4/4,2:02:00, 10-49.174N,100-24.245E,117.5,32.3444,171,164
246,2005/4/4,2:03:00, 10-49.084N,100-24.421E,117.7,32.3464,167,164
247,2005/4/4,2:04:00, 10-48.988N,100-24.592E,120.5,32.3517,169,164
248,2005/4/4,2:05:00, 10-48.892N,100-24.764E,121.3,32.3618,170,164
249,2005/4/4,2:06:00, 10-48.791N,100-24.935E,120,32.3619,170,164
250,2005/4/4,2:07:00, 10-48.697N,100-25.106E,121,32.3632,172,164
251,2005/4/4,2:08:00, 10-48.600N,100-25.277E,120.2,32.3658,174,164
252,2005/4/4,2:09:00, 10-48.502N,100-25.450E,119.6,32.3687,172,164
253,2005/4/4,2:10:00, 10-48.406N,100-25.624E,121.1,32.3695,172,164
254,2005/4/4,2:11:00, 10-48.307N,100-25.793E,121.1,32.3751,168,164
255,2005/4/4,2:12:00, 10-48.209N,100-25.964E,120.5,32.3812,170,164
256,2005/4/4,2:13:00, 10-48.114N,100-26.134E,119.3,32.3871,170,164
257,2005/4/4,2:14:00, 10-48.015N,100-26.306E,117.9,32.3863,170,164
258,2005/4/4,2:15:00, 10-47.920N,100-26.477E,121.3,32.3833,169,164
259,2005/4/4,2:16:00, 10-47.827N,100-26.649E,120.8,32.3835,170,164
260,2005/4/4,2:17:00, 10-47.730N,100-26.819E,119.4,32.385,170,164
261,2005/4/4,2:18:00, 10-47.632N,100-26.990E,119.3,32.3892,171,164
262,2005/4/4,2:19:00, 10-47.536N,100-27.161E,118,32.3916,169,164
263,2005/4/4,2:20:00, 10-47.438N,100-27.331E,119.5,32.3972,169,164
264,2005/4/4,2:21:00, 10-47.342N,100-27.502E,120.1,32.4015,169,164
265,2005/4/4,2:22:00, 10-47.245N,100-27.671E,121.1,32.4049,169,164
267,2005/4/4,2:24:00, 10-47.054N,100-28.009E,120.9,32.4096,172,164
268,2005/4/4,2:25:00, 10-46.957N,100-28.180E,119.7,32.4106,170,164
269,2005/4/4,2:26:00, 10-46.859N,100-28.350E,118.8,32.4113,169,164
270,2005/4/4,2:27:00, 10-46.761N,100-28.523E,120.6,32.4129,170,164
271,2005/4/4,2:28:00, 10-46.666N,100-28.695E,123,32.4163,170,164
272,2005/4/4,2:29:00, 10-46.569N,100-28.867E,117.6,32.4173,170,164
273,2005/4/4,2:30:00, 10-46.470N,100-29.036E,119.4,32.4183,170,164
274,2005/4/4,2:31:00, 10-46.373N,100-29.206E,120.4,32.4191,170,164
275,2005/4/4,2:32:00, 10-46.278N,100-29.378E,119.9,32.4211,169,164
276,2005/4/4,2:33:00, 10-46.182N,100-29.549E,118.5,32.4217,170,164
277,2005/4/4,2:34:00, 10-46.085N,100-29.720E,119,32.421,168,164
278,2005/4/4,2:35:00, 10-45.986N,100-29.894E,120.7,32.42,171,164
279,2005/4/4,2:36:00, 10-45.888N,100-30.068E,120.3,32.4209,171,164
280,2005/4/4,2:37:00, 10-45.791N,100-30.240E,119.5,32.4198,168,164
281,2005/4/4,2:38:00, 10-45.693N,100-30.412E,118.6,32.42,169,164
282,2005/4/4,2:39:00, 10-45.594N,100-30.584E,119,32.4208,170,164
283,2005/4/4,2:40:00, 10-45.498N,100-30.756E,119.3,32.4199,170,164
284,2005/4/4,2:41:00, 10-45.401N,100-30.927E,118.6,32.4185,169,164
285,2005/4/4,2:42:00, 10-45.304N,100-31.098E,119.4,32.4171,169,164
286,2005/4/4,2:43:00, 10-45.207N,100-31.270E,120.7,32.4176,170,164
287,2005/4/4,2:44:00, 10-45.109N,100-31.444E,121.2,32.4168,169,164
288,2005/4/4,2:45:00, 10-45.013N,100-31.616E,120.5,32.4158,170,164
289,2005/4/4,2:46:00, 10-44.915N,100-31.787E,119.4,32.415,169,164
290,2005/4/4,2:47:00, 10-44.820N,100-31.959E,118.6,32.4156,168,164
291,2005/4/4,2:48:00, 10-44.723N,100-32.129E,119.3,32.4131,169,164
292,2005/4/4,2:49:00, 10-44.626N,100-32.300E,119.9,32.4117,169,164
293,2005/4/4,2:50:00, 10-44.529N,100-32.471E,119.1,32.4125,169,164
294,2005/4/4,2:51:00, 10-44.432N,100-32.641E,120.5,32.4129,170,164
295,2005/4/4,2:52:00, 10-44.336N,100-32.812E,120.8,32.4148,169,164
296,2005/4/4,2:53:00, 10-44.240N,100-32.982E,120.5,32.4163,169,164
297,2005/4/4,2:54:00, 10-44.143N,100-33.153E,120.4,32.4184,169,164
298,2005/4/4,2:55:00, 10-44.046N,100-33.323E,119.3,32.4202,170,164
299,2005/4/4,2:56:00, 10-43.948N,100-33.492E,120.2,32.4221,171,164
300,2005/4/4,2:57:00, 10-43.852N,100-33.662E,121.1,32.4223,171,164
301,2005/4/4,2:58:00, 10-43.757N,100-33.832E,120.1,32.4232,170,164
302,2005/4/4,2:59:00, 10-43.660N,100-34.001E,118.5,32.4236,168,164
303,2005/4/4,3:00:00, 10-43.563N,100-34.169E,120.5,32.4247,168,164
304,2005/4/4,3:01:00, 10-43.469N,100-34.337E,120.7,32.4251,169,164
305,2005/4/4,3:02:00, 10-43.372N,100-34.507E,120.1,32.4257,168,164
306,2005/4/4,3:03:00, 10-43.274N,100-34.677E,120.7,32.4257,170,164
307,2005/4/4,3:04:00, 10-43.180N,100-34.847E,120,32.4254,171,164
308,2005/4/4,3:05:00, 10-43.082N,100-35.017E,119.3,32.4253,169,164
309,2005/4/4,3:06:00, 10-42.984N,100-35.188E,119.6,32.4266,169,164
310,2005/4/4,3:07:00, 10-42.888N,100-35.359E,120.8,32.4267,170,164
311,2005/4/4,3:08:00, 10-42.792N,100-35.531E,119.8,32.4267,169,164
312,2005/4/4,3:09:00, 10-42.695N,100-35.702E,119.2,32.4266,171,164
313,2005/4/4,3:10:00, 10-42.598N,100-35.872E,119.7,32.4267,168,164
314,2005/4/4,3:11:00, 10-42.502N,100-36.043E,119.8,32.4273,170,164
315,2005/4/4,3:12:00, 10-42.407N,100-36.213E,119.9,32.4274,169,164
316,2005/4/4,3:13:00, 10-42.309N,100-36.383E,118.7,32.4275,170,164
317,2005/4/4,3:14:00, 10-42.210N,100-36.555E,119,32.4272,169,164
318,2005/4/4,3:15:00, 10-42.113N,100-36.727E,120.1,32.4281,170,164
319,2005/4/4,3:16:00, 10-42.016N,100-36.898E,121.2,32.4281,170,164
320,2005/4/4,3:17:00, 10-41.921N,100-37.070E,119.3,32.4284,170,164
321,2005/4/4,3:18:00, 10-41.824N,100-37.241E,118.7,32.4285,170,164
322,2005/4/4,3:19:00, 10-41.727N,100-37.410E,118.7,32.4288,169,164
323,2005/4/4,3:20:00, 10-41.631N,100-37.582E,119.7,32.4296,169,164
324,2005/4/4,3:21:00, 10-41.535N,100-37.754E,119.9,32.4302,169,164
325,2005/4/4,3:22:00, 10-41.436N,100-37.924E,118.6,32.4305,177,164
326,2005/4/4,3:23:00, 10-41.341N,100-38.094E,119.5,32.4313,168,164
327,2005/4/4,3:24:00, 10-41.245N,100-38.266E,119.4,32.4314,168,164
328,2005/4/4,3:25:00, 10-41.150N,100-38.436E,120.4,32.4323,170,164
329,2005/4/4,3:26:00, 10-41.054N,100-38.608E,119.1,32.4326,168,164
330,2005/4/4,3:27:00, 10-40.956N,100-38.777E,119.9,32.4326,170,164
331,2005/4/4,3:28:00, 10-40.861N,100-38.949E,119.2,32.4326,170,164
332,2005/4/4,3:29:00, 10-40.767N,100-39.120E,118.4,32.4327,169,164
333,2005/4/4,3:30:00, 10-40.669N,100-39.290E,119.7,32.4331,170,164
334,2005/4/4,3:31:00, 10-40.573N,100-39.458E,119.7,32.4329,170,164
335,2005/4/4,3:32:00, 10-40.475N,100-39.630E,119.3,32.4334,168,164
336,2005/4/4,3:33:00, 10-40.377N,100-39.796E,100.5,32.4332,170,164
337,2005/4/4,3:34:00, 10-40.286N,100-39.971E,121,32.4334,171,164
338,2005/4/4,3:35:00, 10-40.188N,100-40.142E,117.3,32.4332,166,164
339,2005/4/4,3:36:00, 10-40.092N,100-40.313E,120.8,32.4332,168,164
340,2005/4/4,3:37:00, 10-39.995N,100-40.484E,118.6,32.4324,170,164
341,2005/4/4,3:38:00, 10-39.900N,100-40.655E,121.2,32.4329,169,164
342,2005/4/4,3:39:00, 10-39.804N,100-40.824E,121.6,32.4329,170,164
343,2005/4/4,3:40:00, 10-39.706N,100-40.995E,120.4,32.4323,168,164
344,2005/4/4,3:41:00, 10-39.611N,100-41.169E,121.8,32.4323,169,164
345,2005/4/4,3:42:00, 10-39.517N,100-41.342E,120.9,32.4315,169,164
346,2005/4/4,3:43:00, 10-39.421N,100-41.515E,119.1,32.4314,168,164
347,2005/4/4,3:44:00, 10-39.322N,100-41.685E,118.7,32.4311,169,164
348,2005/4/4,3:45:00, 10-39.223N,100-41.855E,116.3,32.4303,167,164
349,2005/4/4,3:46:00, 10-39.126N,100-42.025E,119.3,32.4298,169,164
350,2005/4/4,3:47:00, 10-39.031N,100-42.197E,120.6,32.429,170,164
351,2005/4/4,3:48:00, 10-38.936N,100-42.369E,118.7,32.4293,168,164
352,2005/4/4,3:49:00, 10-38.842N,100-42.542E,117.5,32.4288,169,164
353,2005/4/4,3:50:00, 10-38.743N,100-42.711E,119.1,32.4281,168,164
354,2005/4/4,3:51:00, 10-38.644N,100-42.882E,117.6,32.4273,169,164
356,2005/4/4,3:53:00, 10-38.452N,100-43.231E,118.2,32.4258,169,164
357,2005/4/4,3:54:00, 10-38.371N,100-43.408E,115.9,32.4249,167,164
358,2005/4/4,3:55:00, 10-38.290N,100-43.590E,113.2,32.424,169,164
364,2005/4/4,4:01:00, 10-37.736N,100-44.628E,130.3,32.4184,169,164
365,2005/4/4,4:02:00, 10-37.613N,100-44.788E,122.7,32.4168,170,164
366,2005/4/4,4:03:00, 10-37.515N,100-44.958E,117.2,32.4159,168,164
367,2005/4/4,4:04:00, 10-37.416N,100-45.128E,120.7,32.4139,168,164
369,2005/4/4,4:06:00, 10-37.212N,100-45.473E,119.3,32.4113,169,164
370,2005/4/4,4:07:00, 10-37.107N,100-45.650E,119.5,32.4108,174,164
371,2005/4/4,4:08:00, 10-37.007N,100-45.820E,119.3,32.4092,166,164
372,2005/4/4,4:09:00, 10-36.909N,100-45.988E,115.6,32.4075,169,164
373,2005/4/4,4:10:00, 10-36.808N,100-46.158E,121.8,32.4067,168,164
374,2005/4/4,4:11:00, 10-36.713N,100-46.329E,121.4,32.4052,170,164
375,2005/4/4,4:12:00, 10-36.617N,100-46.499E,119.5,32.4046,166,164
376,2005/4/4,4:13:00, 10-36.518N,100-46.668E,117,32.4025,173,164
377,2005/4/4,4:14:00, 10-36.415N,100-46.840E,118.9,32.401,168,164
378,2005/4/4,4:15:00, 10-36.304N,100-47.010E,120.7,32.3981,169,164
379,2005/4/4,4:16:00, 10-36.203N,100-47.179E,120,32.3967,169,164
380,2005/4/4,4:17:00, 10-36.106N,100-47.352E,120.4,32.3954,168,164
381,2005/4/4,4:18:00, 10-36.008N,100-47.523E,119.1,32.3938,168,164
382,2005/4/4,4:19:00, 10-35.910N,100-47.692E,122,32.3926,169,164
383,2005/4/4,4:20:00, 10-35.812N,100-47.865E,119.5,32.3919,169,164
384,2005/4/4,4:21:00, 10-35.716N,100-48.037E,118.6,32.3902,168,164
385,2005/4/4,4:22:00, 10-35.610N,100-48.213E,120.5,32.3876,---,164
386,2005/4/4,4:23:00, 10-35.510N,100-48.382E,120.7,32.3858,169,164
387,2005/4/4,4:24:00, 10-35.411N,100-48.549E,118.5,32.3848,169,164
388,2005/4/4,4:25:00, 10-35.314N,100-48.720E,121.5,32.3816,170,164
389,2005/4/4,4:26:00, 10-35.218N,100-48.891E,121.5,32.3789,168,164
390,2005/4/4,4:27:00, 10-35.118N,100-49.061E,118.9,32.3764,169,164
391,2005/4/4,4:28:00, 10-35.018N,100-49.231E,124.2,32.3748,168,164
392,2005/4/4,4:29:00, 10-34.919N,100-49.406E,120,32.374,171,164
393,2005/4/4,4:30:00, 10-34.821N,100-49.576E,119.4,32.3725,169,164
394,2005/4/4,4:31:00, 10-34.722N,100-49.745E,119.6,32.3701,169,164
395,2005/4/4,4:32:00, 10-34.622N,100-49.915E,121.5,32.3689,168,164
396,2005/4/4,4:33:00, 10-34.522N,100-50.086E,120.4,32.3686,169,164
397,2005/4/4,4:34:00, 10-34.423N,100-50.258E,118.7,32.3699,166,164
398,2005/4/4,4:35:00, 10-34.323N,100-50.427E,119.4,32.3699,168,164
399,2005/4/4,4:36:00, 10-34.224N,100-50.598E,119.7,32.3688,169,164
400,2005/4/4,4:37:00, 10-34.126N,100-50.769E,120.7,32.3669,169,164
401,2005/4/4,4:38:00, 10-34.029N,100-50.940E,119.8,32.3644,170,164
402,2005/4/4,4:39:00, 10-33.929N,100-51.111E,121.2,32.363,167,164
403,2005/4/4,4:40:00, 10-33.829N,100-51.280E,120,32.3641,168,164
404,2005/4/4,4:41:00, 10-33.733N,100-51.452E,117.9,32.3637,169,164
405,2005/4/4,4:42:00, 10-33.633N,100-51.624E,120.7,32.3645,169,164
406,2005/4/4,4:43:00, 10-33.535N,100-51.795E,121.3,32.3623,169,164
407,2005/4/4,4:44:00, 10-33.439N,100-51.965E,122.1,32.36,169,164
408,2005/4/4,4:45:00, 10-33.340N,100-52.136E,119.7,32.358,167,164
409,2005/4/4,4:46:00, 10-33.241N,100-52.307E,119,32.3557,168,164
410,2005/4/4,4:47:00, 10-33.137N,100-52.478E,119.7,32.3523,169,164
412,2005/4/4,4:49:00, 10-32.939N,100-52.820E,120.3,32.3508,168,164
413,2005/4/4,4:50:00, 10-32.835N,100-52.992E,122.9,32.3486,169,164
414,2005/4/4,4:51:00, 10-32.736N,100-53.166E,122,32.3492,168,164
415,2005/4/4,4:52:00, 10-32.634N,100-53.338E,119.6,32.3471,168,164
416,2005/4/4,4:53:00, 10-32.536N,100-53.507E,115.7,32.3438,170,164
417,2005/4/4,4:54:00, 10-32.443N,100-53.682E,118.5,32.3373,169,164
418,2005/4/4,4:55:00, 10-32.350N,100-53.857E,114.7,32.3315,169,164
419,2005/4/4,4:56:01, 10-32.257N,100-54.032E,117.7,32.3282,169,164
421,2005/4/4,4:58:00, 10-32.074N,100-54.381E,118.4,32.3133,167,164
422,2005/4/4,4:59:00, 10-31.987N,100-54.552E,117.7,32.3091,169,164
423,2005/4/4,5:00:00, 10-31.896N,100-54.725E,116.7,32.3059,169,164
424,2005/4/4,5:01:00, 10-31.806N,100-54.897E,116.2,32.3028,167,164
425,2005/4/4,5:02:00, 10-31.716N,100-55.070E,118.6,32.2983,168,164
426,2005/4/4,5:03:00, 10-31.626N,100-55.244E,119.5,32.2954,168,164
427,2005/4/4,5:04:00, 10-31.532N,100-55.420E,119.7,32.2939,167,164
428,2005/4/4,5:05:00, 10-31.440N,100-55.596E,116.5,32.2902,170,164
429,2005/4/4,5:06:00, 10-31.348N,100-55.769E,115.8,32.2877,168,164
430,2005/4/4,5:07:00, 10-31.257N,100-55.944E,119.4,32.2844,168,164
431,2005/4/4,5:08:00, 10-31.162N,100-56.119E,118.4,32.2813,170,164
432,2005/4/4,5:09:00, 10-31.069N,100-56.292E,117.1,32.2799,168,164
433,2005/4/4,5:10:00, 10-30.975N,100-56.466E,118.8,32.2779,170,164
434,2005/4/4,5:11:00, 10-30.883N,100-56.640E,119.1,32.2762,169,164
435,2005/4/4,5:12:00, 10-30.792N,100-56.816E,118.2,32.2742,169,164
436,2005/4/4,5:13:00, 10-30.701N,100-56.993E,118.1,32.2728,172,164
437,2005/4/4,5:14:00, 10-30.606N,100-57.166E,117.7,32.2714,170,164
438,2005/4/4,5:15:00, 10-30.515N,100-57.343E,119.2,32.27,168,164
439,2005/4/4,5:16:00, 10-30.421N,100-57.518E,119.5,32.2702,169,164
440,2005/4/4,5:17:00, 10-30.326N,100-57.693E,119.1,32.2701,170,164
441,2005/4/4,5:18:00, 10-30.234N,100-57.868E,118.1,32.2692,169,164
442,2005/4/4,5:19:00, 10-30.143N,100-58.042E,117.7,32.2698,171,164
443,2005/4/4,5:20:00, 10-30.051N,100-58.217E,115.7,32.2704,170,164
444,2005/4/4,5:21:00, 10-29.959N,100-58.393E,118.5,32.2706,169,164
445,2005/4/4,5:22:00, 10-29.868N,100-58.567E,119,32.2702,170,164
446,2005/4/4,5:23:00, 10-29.776N,100-58.743E,117.5,32.2708,166,164
447,2005/4/4,5:24:00, 10-29.684N,100-58.919E,117.4,32.2696,169,164
448,2005/4/4,5:25:00, 10-29.591N,100-59.095E,118.7,32.2697,169,164
449,2005/4/4,5:26:00, 10-29.497N,100-59.270E,118.6,32.2694,168,164
450,2005/4/4,5:27:00, 10-29.408N,100-59.446E,119.1,32.2701,169,164
451,2005/4/4,5:28:00, 10-29.315N,100-59.621E,117.7,32.2692,169,164
452,2005/4/4,5:29:00, 10-29.222N,100-59.796E,117.6,32.2691,169,164
453,2005/4/4,5:30:00, 10-29.130N,100-59.972E,118.3,32.2695,169,164
454,2005/4/4,5:31:00, 10-29.037N,101-00.149E,118.9,32.2692,168,164
455,2005/4/4,5:32:00, 10-28.945N,101-00.325E,116.9,32.2687,168,164
456,2005/4/4,5:33:00, 10-28.852N,101-00.499E,117.4,32.2692,169,164
457,2005/4/4,5:34:00, 10-28.761N,101-00.676E,119.2,32.2696,170,164
458,2005/4/4,5:35:00, 10-28.669N,101-00.852E,119.4,32.269,169,164
459,2005/4/4,5:36:00, 10-28.577N,101-01.028E,116.1,32.2695,168,164
460,2005/4/4,5:37:00, 10-28.485N,101-01.202E,117.7,32.2702,168,164
461,2005/4/4,5:38:00, 10-28.394N,101-01.377E,119.9,32.2708,169,164
462,2005/4/4,5:39:00, 10-28.304N,101-01.550E,117.8,32.2717,169,164
463,2005/4/4,5:40:00, 10-28.213N,101-01.723E,116.5,32.2721,169,164
464,2005/4/4,5:41:00, 10-28.122N,101-01.895E,118.3,32.2725,169,164
465,2005/4/4,5:42:00, 10-28.031N,101-02.070E,118.1,32.2727,169,164
466,2005/4/4,5:43:00, 10-27.942N,101-02.243E,117,32.2728,169,164
467,2005/4/4,5:44:00, 10-27.852N,101-02.416E,119.2,32.2733,168,164
468,2005/4/4,5:45:00, 10-27.761N,101-02.588E,120.1,32.2732,169,164
469,2005/4/4,5:46:00, 10-27.672N,101-02.759E,116.7,32.2721,169,164
470,2005/4/4,5:47:00, 10-27.582N,101-02.929E,119.6,32.2724,169,164
471,2005/4/4,5:48:00, 10-27.491N,101-03.099E,117.8,32.2735,169,164
472,2005/4/4,5:49:00, 10-27.401N,101-03.271E,117.5,32.2742,168,164
473,2005/4/4,5:50:00, 10-27.310N,101-03.444E,118.2,32.2743,169,164
474,2005/4/4,5:51:00, 10-27.219N,101-03.617E,118.1,32.2751,169,164
475,2005/4/4,5:52:00, 10-27.128N,101-03.792E,116.9,32.276,168,164
476,2005/4/4,5:53:00, 10-27.038N,101-03.964E,118.2,32.277,169,164
477,2005/4/4,5:54:00, 10-26.946N,101-04.137E,116,32.2786,170,164
478,2005/4/4,5:55:00, 10-26.857N,101-04.311E,119.5,32.2799,170,164
479,2005/4/4,5:56:00, 10-26.766N,101-04.485E,117.5,32.2805,168,164
480,2005/4/4,5:57:00, 10-26.675N,101-04.659E,116.9,32.2799,172,164